Tracking 28790 objects as of 19-Apr-2024
HD Live streaming from Space Station
objects crossing your sky now

FENGYUN 1C DEB

Track FENGYUN 1C DEB now!
10-day predictions


NORAD ID: 31929
Int'l Code: 1999-025CME
Perigee: 738.3 km
Apogee: 850.3 km
Inclination: 98.7 °
Period: 100.6 minutes
Semi major axis: 7165 km
RCS: 0.0033 m2 (small)
Launch date: May 10, 1999
Source: People's Republic of China (PRC)
Launch site: Taiyaun Space Center, China (TSC)

Note: This is SATELLITE DEBRIS
Your satellite tracking list
Your tracking list is empty




NASA's NSSDC Master Catalog

Two Line Element Set (TLE):
1 31929U 99025CME 24103.08035370  .00001448  00000-0  54484-3 0  9990
2 31929  98.7285 219.2324 0078136  48.3112 312.4723 14.31358609619123
Source of the keplerian elements: AFSPC